Terminal Aerodrome Forecast
Issued by NWS Sioux Falls, SD

Home | Current Version | Previous Version | Graphics & Text | Print | Product List | Glossary On
Versions: 1 2 3 4 5 6 7 8 9 10 11 12 13 14 15 16 17 18
000
FTUS43 KFSD 240239 AAA
TAFSUX
TAF AMD
KSUX 240239Z 2403/2424 35004KT P6SM BKN007
     FM240400 04004KT P6SM SCT003 BKN008
     FM241200 08007KT 1SM -SN BKN005
     FM241400 07007KT 3/4SM -SN OVC003
     FM242200 01005KT 1 1/2SM -SN OVC007=

USA.gov is the U.S. government's official web portal to all federal, state and local government web resources and services.